NOAA NWS Hourly Roundups by Site

Regional Weather Roundup for Seattle, WA

To Select Another Site Choose from List

Select Site:  

000
ASUS46 KSEW 032020
RWRWA

WASHINGTON REGIONAL WEATHER ROUNDUP
NATIONAL WEATHER SERVICE SEATTLE WA
100 PM PDT TUE AUG 03 2021

NOTE:"FAIR" INDICATES FEW OR NO CLOUDS BELOW 12,000 FEET WITH NO
SIGNIFICANT WEATHER AND/OR OBSTRUCTIONS TO VISIBILITY.

WAZ507-509-555>559-032100-
SEATTLE, TACOMA, EVERETT, AND VICINITY

CITY           SKY/WX    TMP DP  RH WIND       PRES   REMARKS
EVERETT        SUNNY     73  57  57 VRB7      30.09F
BOEING FIELD   MOSUNNY   75  57  53 MISG      30.06F
RENTON         MOSUNNY   76  55  48 N6        30.06F
SEATAC AIRPORT MOSUNNY   75  57  53 NW6       30.08S
JBLM-MCCHORD   PTSUNNY   78  56  45 NE8       30.06F
PUYALLUP       FAIR      81  55  41 CALM      30.08S
BREMERTON      MOSUNNY   82  59  45 N5        30.07F
JBLM-FT LEWIS  PTSUNNY   79  55  44 SW7       30.06S
TACOMA NARROWS MOSUNNY   72  55  55 VRB6      30.07F
$$

WAZ001-503-506-510-514-515-032100-
NORTH INTERIOR

CITY           SKY/WX    TMP DP  RH WIND       PRES   REMARKS
BELLINGHAM     SUNNY     75  66  73 S7        30.06F
FRIDAY HARBOR  SUNNY     68  56  65 SE5       30.07F
EASTSOUND      SUNNY     72  61  68 NW7       30.05F
PORT ANGELES   SUNNY     67  53  61 NW7       30.09F
EDIZ HOOK      MOCLDY    58  54  84 NW15      30.08F HAZE
PORT TOWNSEND  FAIR      75  57  53 NW7       30.06S
NAS WHIDBEY    MOSUNNY   62  53  72 W8        30.11F
ARLINGTON        N/A     78  62  57 N6        30.06F
BURLINGTON     SUNNY     81  59  47 NW5       30.06F HAZE
$$

WAZ020-022-039-040-504-511-512-032100-
SOUTHWEST INTERIOR

CITY           SKY/WX    TMP DP  RH WIND       PRES   REMARKS
SHELTON        MOSUNNY   79  55  43 MISG      30.04F
OLYMPIA        MOSUNNY   79  56  45 N6        30.06F
CHEHALIS       FAIR      79  59  50 VRB3      30.06F
KELSO          MOSUNNY   75  58  55 VRB6      30.07F
VANCOUVER      SUNNY     80  55  42 NW7       30.03F
SCAPPOOSE, OR  SUNNY     83  58  42 VRB5      30.02F
PORTLAND, OR   PTSUNNY   81  56  42 NW12      30.03F
$$

WAZ021-516-517-032100-
WASHINGTON COAST

CITY           SKY/WX    TMP DP  RH WIND       PRES   REMARKS
FORKS          SUNNY     71  55  56 NW8       30.11F
HOQUIAM        MOSUNNY   68  56  65 W9        30.11S
ASTORIA, OR    MOSUNNY   65  56  72 W12       30.12S
$$

WAZ019-023-024-040-567>569-032100-
CASCADE MOUNTAINS AND COLUMBIA GORGE

CITY           SKY/WX    TMP DP  RH WIND       PRES   REMARKS
STAMPEDE PASS  MOSUNNY   83  49  30 CALM      30.20S
TROUTDALE, OR  SUNNY     80  58  46 VRB6      30.03F
HOOD RIVER, OR CLEAR     90  61  37 CALM      29.96F
THE DALLES, OR SUNNY     94  62  34 NW8       29.92F HX  94
$$

WAZ026-027-041>044-520-521-032100-
EAST SLOPES

CITY           SKY/WX    TMP DP  RH WIND       PRES   REMARKS
OMAK           MOSUNNY   96  47  18 S8        30.02F HAZE    HX  92
WENATCHEE      SUNNY     92  51  24 SW3       30.00F
ELLENSBURG     SUNNY     92  52  25 SE3       30.04F
YAKIMA         MOSUNNY   94  56  27 SW5       30.00F HX  92
SUNNYSIDE ARPT PTCLDY    89  64  43 CALM      29.97F HX  90
YAKIMA TC      FAIR      93  49  21 SW3       30.00F HX  90
$$

WAZ028-034-035-032100-
COLUMBIA BASIN

CITY           SKY/WX    TMP DP  RH WIND       PRES   REMARKS
EPHRATA        SUNNY     95  51  22 VRB3      30.00F HAZE    HX  92
MOSES LAKE     SUNNY     93  54  26 VRB3      30.01F HAZE    HX  91
PASCO          SUNNY     93  68  43 NW5       29.96F HAZE    HX  97
RICHLAND ARPT  CLEAR     96  58  28 E7        29.95F HX  95
HERMISTON, OR  SUNNY     96  56  26 N10       29.95F HX  94
$$

WAZ036>038-032100-
NORTHEAST WASHINGTON

CITY           SKY/WX    TMP DP  RH WIND       PRES   REMARKS
SPOKANE GEIGER PTSUNNY   93  52  24 VRB3      30.10F SMOKE   HX  90
SPOKANE FELTS  SUNNY     93  50  23 CALM      30.08F SMOKE   HX  90
FAIRCHILD AFB  PTSUNNY   96  49  20 VRB5      30.11F SMOKE   HX  92
COEURDALENE,ID SUNNY     90  51  26 CALM      30.11F HAZE
DEER PARK      SUNNY     92  45  19 CALM      30.10F HAZE
$$

WAZ029>033-032100-
SOUTHEAST WASHINGTON

CITY           SKY/WX    TMP DP  RH WIND       PRES   REMARKS
PULLMAN        PTSUNNY   90  52  27 S8        30.12F HAZE
LEWISTON, ID   MOSUNNY   95  57  27 CALM      30.03F SMOKE   HX  94
WALLA WALLA    SUNNY     94  51  23 VRB5      29.99F HX  91
PENDLETON, OR  SUNNY     99  47  17 VRB5      29.99F HX  95
$$


 

View Past Reports for Seattle, WA.

Products Courtesy of NOAA-NWS
NWS Information Parsing Script by Ken True at Saratoga Weather - Script by SE Lincoln Weather.